ALCOMSAT 1

Last updated on Mon Sep 07 2026 00:03:00 GMT+0000 (Coordinated Universal Time)

1 43039U 17078A 26249.44433413 -.00000202 00000+0 00000+0 0 9994 2 43039 0.0282 14.9489 0002064 145.4388 320.3315 1.00271632 32119
UTC large
Height (km)
Speed (km/s)
/
Latitude / Longitude
Inclination (degrees)
Orbital Period (minutes)
Azimuth
Elevation
Range (km)
Doppler Factor

Next 0 passes for location: London (51.5072 / 0.1276)

No passes found over London.
ALCOMSAT 1